Weather in Teplovka

Russia / Samara Oblast     52°16′58″N   49°47′20″E
temp.,
°C
wind,
m/s
gust,
m/s
humid.,
%
clouds,
%
prec.,
mm/h
press.,
hPa
HPBL,
m
8 march, mon
mon801:00−6ssw101794100 0.3 1007705
04:00−4sw111894100 0.9 1004969
07:00−4sw111793100 1.0 1003889
10:00−2wsw101589100 1.2 10041022
13:00−1wsw81194100 0.3 1005859
16:00−1sw91393100 0.8 1005900
19:00−1sw81592100 0.4 1004860
22:00−1wsw81494100 0.6 1005800
9 march, tue
tue901:00−6w499048 0.1 1007184
04:00−11w448826 0.1 100959
07:00−14wnw229154 0.0 101020
10:00−11se009077 0.0 101137
13:00−8ene2287100 0.0 1011237
16:00−7ne2288100 0.0 1009293
19:00−8n3496100 0.7 1008159
22:00−10nw4693100 0.9 1009112
10 march, wed
wed1001:00−14nw459385 0.0 101083
04:00−15nw479467 0.0 1011131
07:00−14nw4994100 0.1 1012293
10:00−15nw6109196 0.1 1014423
13:00−14nw698885 0.0 1016581
16:00−14nw698793 0.0 1017695
19:00−18nw499295 0.0 1019163
22:00−21nnw469777 0.0 102191
11 march, thu
thu1101:00−25nw479637 0.0 1022109
04:00−27nw469618 0.0 1024101
07:00−28nw46960 0.0 102595
10:00−24nnw46930 0.0 1027241
13:00−20nw35910 0.0 1027287
16:00−19wnw36910 0.0 1027264
19:00−22w34940 0.0 102825
22:00−21wsw339610 0.0 103024
12 march, fri
fri1201:00−20w239993 0.0 103020
04:00−21wnw1210076 0.1 103120
07:00−22nw1110027 0.0 103220
10:00−17w119435 0.0 103451
13:00−14wnw128859 0.0 1034239
16:00−12wnw129076 0.0 1034256
19:00−17wnw229638 0.0 103420
22:00−19w0110019 0.0 103520